Flag for Hungary Weather past 2 weeks in Budapest, Hungary

Now
59 °F

Passing clouds.


Feels Like: 57 °F
Forecast: 52 / 74 °F
Wind: 9 mph from East

Location: Ferenc Liszt International Airport

Current Time: Aug 22, 2014 at 8:44:56 AM

Latest Report: Aug 22, 2014 at 8:00 AM


Visibility: N/A

Pressure: 30.09 "Hg

Humidity: 77%

Dew point: 52 °F

Location of BudapestLocation

Historic Weather in Budapest — Graph

°F

Budapest temperature yesterday

Maximum temperature yesterday: 70 °F (at 3:00 PM)
Minimum temperature yesterday: 55 °F (at 10:30 PM)
Average temperature yesterday: 62 °F

Past Weeks' High & Low Weather Summary

 TemperatureHumidityPressure
High86 °F (Aug 13, 4:00 PM)100% (Aug 7, 7:00 AM)30.09 "Hg (Aug 7, 7:00 AM)
Low48 °F (Aug 18, 5:30 AM)36% (Aug 18, 4:30 PM)29.68 "Hg (Aug 13, 10:00 PM)
Average68 °F75%29.94 "Hg
* Reported Aug 7 7:00 AM — Aug 22 7:30 AM, Budapest, Weather by CustomWeather, © 2014

Note: Actual official high and low records may vary slightly from our data, if they occured in-between our weather recording intervals... More about our weather records

Advertising

Budapest weather history for previous 24 hours

 ConditionsComfort  
Time TempWeatherWind HumidityBarometerVisibility
7:30 AM
Aug 22
57 °FPassing clouds.7 mph82%30.09 "HgN/A
7:00 AM54 °FSunny.2 mph88%30.09 "Hg10 mi
6:30 AM50 °FClear.No wind94%30.09 "Hg10 mi
6:00 AM50 °FClear.3 mph88%30.09 "Hg10 mi
5:30 AM52 °FClear.2 mph88%30.09 "Hg10 mi
5:00 AM52 °FClear.1 mph94%30.09 "Hg10 mi
4:30 AM48 °FClear.No wind100%30.09 "Hg10 mi
4:00 AM48 °FClear.No wind100%30.09 "Hg10 mi
3:30 AM50 °FClear.No wind94%30.09 "Hg10 mi
3:00 AM50 °FClear.No wind100%30.09 "Hg10 mi
2:30 AM50 °FClear.2 mph100%30.09 "Hg10 mi
2:00 AM52 °FClear.No wind94%30.09 "Hg10 mi
1:30 AM52 °FClear.5 mph94%30.09 "Hg10 mi
1:00 AM54 °FClear.1 mph94%30.09 "Hg10 mi
12:30 AM54 °FClear.2 mph94%30.09 "Hg10 mi
12:00 AM54 °FClear.5 mph94%30.09 "Hg10 mi
11:30 PM
Aug 21
55 °FClear.7 mph88%30.09 "Hg10 mi
11:00 PM55 °FClear.7 mph94%30.09 "Hg10 mi
10:30 PM55 °FClear.7 mph94%30.07 "Hg10 mi
10:00 PM57 °FClear.7 mph88%30.07 "Hg10 mi
9:30 PM57 °FPassing clouds.7 mph88%30.07 "HgN/A
9:00 PM57 °FClear.1 mph82%30.04 "Hg10 mi
8:30 PM61 °FSunny.2 mph68%30.04 "Hg10 mi
8:00 PM63 °FSunny.5 mph64%30.01 "Hg10 mi
7:30 PM64 °FSunny.7 mph60%30.01 "Hg10 mi
7:00 PM68 °FSunny.9 mph49%30.01 "Hg10 mi
6:30 PM68 °FSunny.14 mph49%29.98 "Hg10 mi
6:00 PM70 °FSunny.14 mph50%29.98 "Hg10 mi
5:30 PM70 °FSunny.18 mph50%29.98 "Hg10 mi
5:00 PM70 °FSunny.16 mph53%29.98 "Hg10 mi
4:30 PM70 °FSunny.17 mph53%29.98 "Hg10 mi
4:00 PM70 °FPassing clouds.18 mph57%29.98 "HgN/A
3:30 PM70 °FScattered clouds.16 mph53%29.98 "HgN/A
3:00 PM70 °FScattered clouds.16 mph60%29.98 "HgN/A
2:30 PM68 °FScattered clouds.17 mph60%29.98 "HgN/A
2:00 PM68 °FBroken clouds.18 mph64%29.98 "HgN/A
1:30 PM68 °FBroken clouds.15 mph64%29.98 "HgN/A
1:00 PM66 °FBroken clouds.13 mph68%29.98 "HgN/A
12:30 PM64 °FPartly sunny.9 mph78%29.95 "HgN/A
12:00 PM63 °FBroken clouds.9 mph83%29.95 "HgN/A
11:30 AM63 °FBroken clouds.8 mph88%29.95 "HgN/A
11:00 AM61 °FBroken clouds.9 mph94%29.95 "HgN/A
10:30 AM59 °FBroken clouds.7 mph100%29.95 "HgN/A
10:00 AM59 °FLight rain. Broken clouds.8 mph94%29.95 "Hg5 mi
9:30 AM59 °FPartly sunny.8 mph94%29.95 "HgN/A
9:00 AM57 °FLight rain. Broken clouds.12 mph100%29.95 "HgN/A
8:30 AM59 °FLight rain. Cloudy.10 mph100%29.95 "Hg4 mi
8:00 AM59 °FLight rain. Broken clouds.9 mph100%29.92 "Hg5 mi
Weather by CustomWeather, © 2014

See weather overviewHow to use our weather pages